Regional Weather Roundup
Issued by NWS

Home | Current Version | Previous Version | Text Only | Print | Product List | Glossary Off
Versions: 1 2 3 4 5 6 7 8 9 10 11 12 13 14 15 16 17 18 19 20 21 22 23 24 25 26 27 28 29 30 31 32 33 34 35 36 37 38 39 40 41 42 43 44 45 46 47 48 49 50

000
ASUS43 KFSD 161702
RWRSD

WEATHER ROUNDUP FOR SOUTH DAKOTA
NATIONAL WEATHER SERVICE SIOUX FALLS SD
1200 PM CDT MON OCT 16 2017

NOTE: "FAIR" INDICATES FEW OR NO CLOUDS BELOW 12,000 FEET WITH NO
SIGNIFICANT WEATHER AND/OR OBSTRUCTIONS TO VISIBILITY.


SDZ001>005-009-010-012>017-161800-
NORTHWEST AND NORTH CENTRAL SOUTH DAKOTA

CITY           SKY/WX    TMP DP  RH WIND       PRES   REMARKS
BUFFALO          N/A     64  29  26 W20       30.01S
FAITH            N/A     65  33  30 SW12      30.06F
MOBRIDGE       SUNNY     58  37  45 S10       30.01F
$$

SDZ012>016-024>037-041>051-057-063-072>074-161800-
SOUTHWEST AND SOUTH CENTRAL SOUTH DAKOTA

CITY           SKY/WX    TMP DP  RH WIND       PRES   REMARKS
RAPID CTY ARPT SUNNY     66  28  24 VRB3      30.12F
PIERRE         CLOUDY    52  35  52 SW7       30.07F
CUSTER         SUNNY     61  24  24 CALM      30.19S
ELLSWORTH AFB  SUNNY     68  28  22 S3        30.11F
PHILIP         SUNNY     61  37  41 W10       30.10F
PINE RIDGE     CLOUDY    64  29  26 VRB3      30.15F
SPEARFISH      FAIR      66  28  24 W7        30.14F
WINNER         FAIR      63  40  42 S6        30.11F
$$

SDZ004>011-016>023-039-040-161800-
NORTHEAST SOUTH DAKOTA

CITY           SKY/WX    TMP DP  RH WIND       PRES   REMARKS
ABERDEEN       SUNNY     57  38  48 SW12      30.06F
WATERTOWN      SUNNY     60  37  42 S13G22    30.08F
BROOKINGS      SUNNY     61  37  41 S20G25    30.13F
SISSETON         N/A     63  37  38 SW26G36   30.02F
$$

SDZ017-020-022-023-036>040-048>070-161800-
SOUTHEAST SOUTH DAKOTA

CITY           SKY/WX    TMP DP  RH WIND       PRES   REMARKS
SIOUX FALLS    MOSUNNY   62  39  42 S18       30.17F
HURON          SUNNY     58  38  47 S15       30.08F
CHAMBERLAIN    SUNNY     61  38  43 SW6       30.10F
MITCHELL       SUNNY     64  36  35 S12       30.11F
YANKTON        SUNNY     65  36  34 S17       30.16F
$$

ABBREVIATIONS USED IN REMARKS
   TC - TEMPERATURE IN CELSIUS
  WCI - WIND CHILL INDEX
   HX - HEAT INDEX
  VSB - VISIBILITY




USA.gov is the U.S. government's official web portal to all federal, state and local government web resources and services.